Погода в Гридине

Россия / Костромская область     57°42′53″N   41°09′12″E
темп.,
°C
ветер,
м/с
пор.,
м/с
влажн.,
%
обл.,
%
осадки,
мм/ч
давл.,
гПа
погр.,
м
11 мая, вт
вт1100:00+5св22805 0.0 102935
03:00+4всв23836 0.0 102951
06:00+6всв25785 0.0 1030141
09:00+13всв36525 0.0 1030677
12:00+17всв34405 0.0 1029978
15:00+18в34370 0.0 10281051
18:00+17в24575 0.0 1028154
21:00+11в34703 0.0 102844
12 мая, ср
ср1200:00+9в23785 0.0 102945
03:00+9в22910 0.0 102935
06:00+12всв24872 0.0 1029108
09:00+18в34677 0.0 1028468
12:00+22в45555 0.0 10271088
15:00+23в47495 0.0 10251919
18:00+21в386417 0.0 1023444
21:00+13юв259440 0.9 1024127
13 мая, чт
чт1300:00+14вюв3118864 0.0 1024349
03:00+12вюв399530 0.0 1024252
06:00+13вюв39925 0.0 1024335
09:00+18юв487035 0.0 1024866
12:00+21вюв695413 0.0 10221395
15:00+22вюв610546 0.0 10191458
18:00+16юв61477100 0.3 1018795
21:00+14юв51293100 0.6 1017589
14 мая, пт
пт1400:00+14ююв41097100 0.1 1017529
03:00+12ю249774 0.1 101894
06:00+13ю269420 0.0 1019222
09:00+18ююз467340 0.0 1019898
12:00+20ююз4764100 0.3 10191319
15:00+20ю466860 0.9 10191174
18:00+19юв2581100 1.1 1017268
21:00+15вюв359151 1.2 101693
15 мая, сб
сб1500:00+14вюв2298100 4.1 101654
03:00+15юв41296100 4.9 1014387
06:00+16вюв2595100 0.3 1013154
09:00+20ююв41076100 0.3 1013616
12:00+22ююв4882100 2.4 1012612
15:00+23ю47769 5.4 1010982
18:00+17ююз61689100 4.9 1009934
21:00+13ю515893 5.8 1010602